Flag for U.S.A. Weather past 2 weeks in Menominee, Michigan, U.S.A.

Now
64 °F

Mostly cloudy.


Feels Like: 64 °F
Forecast: 53 / 67 °F
Wind: 5 mph from Southeast

Location: Menominee Weather Reporting Station

Current Time: Jun 29, 2015 at 11:23:49 PM

Latest Report: Jun 29, 2015 at 10:55 PM


Visibility: 5 mi

Pressure: 29.74 "Hg

Humidity: 88%

Dew point: 61 °F

Location of MenomineeLocation

Historic Weather in Menominee — Graph

°F

Menominee temperature yesterday

Maximum temperature yesterday: 79 °F (at 12:35 PM)
Minimum temperature yesterday: 52 °F (at 3:15 AM)
Average temperature yesterday: 66 °F

Past Weeks' High & Low Weather Summary

 TemperatureHumidityPressure
High81 °F (Jun 24, 12:15 PM)94% (Jun 14, 11:55 PM)30.19 "Hg (Jun 14, 11:55 PM)
Low41 °F (Jun 19, 3:55 AM)28% (Jun 23, 4:15 PM)29.57 "Hg (Jun 22, 2:35 PM)
Average64 °F69%29.96 "Hg
* Reported Jun 14 10:15 PM — Jun 29 10:15 PM, Menominee, Weather by CustomWeather, © 2015

Note: Actual official high and low records may vary slightly from our data, if they occured in-between our weather recording intervals... More about our weather records

Advertising

Menominee weather history for previous 24 hours

 ConditionsComfort  
Time TempWeatherWind HumidityBarometerVisibility
10:15 PM
Mon, Jun 29
64 °FThundershowers. Mostly cloudy.No wind88%29.75 "Hg9 mi
9:35 PM64 °FPassing clouds.5 mph88%29.75 "Hg10 mi
9:15 PM66 °FPassing clouds.No wind83%29.75 "Hg10 mi
8:55 PM66 °FPassing clouds.3 mph83%29.74 "Hg10 mi
8:35 PM66 °FPartly sunny.No wind83%29.74 "Hg10 mi
8:15 PM66 °FMostly cloudy.No wind83%29.75 "Hg10 mi
7:55 PM66 °FOvercast.3 mph83%29.75 "Hg10 mi
7:35 PM66 °FOvercast.6 mph83%29.75 "Hg10 mi
7:15 PM66 °FOvercast.9 mph83%29.75 "Hg10 mi
6:55 PM66 °FOvercast.7 mph83%29.75 "Hg10 mi
6:35 PM66 °FPartly sunny.10 mph78%29.74 "Hg10 mi
6:15 PM66 °FOvercast.8 mph78%29.75 "Hg10 mi
5:55 PM68 °FOvercast.8 mph73%29.75 "Hg10 mi
5:35 PM70 °FMore clouds than sun.8 mph64%29.75 "Hg10 mi
5:15 PM73 °FMostly cloudy.7 mph53%29.75 "Hg10 mi
4:35 PM75 °FSunny.8 mph54%29.74 "Hg10 mi
4:15 PM75 °FSunny.12 mph50%29.75 "Hg10 mi
3:55 PM77 °FSunny.13 mph47%29.75 "Hg10 mi
3:35 PM77 °FSunny.13 mph51%29.75 "Hg10 mi
3:15 PM77 °FSunny.9 mph47%29.75 "Hg10 mi
2:55 PM77 °FSunny.10 mph51%29.76 "Hg10 mi
2:35 PM75 °FSunny.12 mph54%29.76 "Hg10 mi
2:15 PM75 °FSunny.13 mph50%29.76 "Hg10 mi
1:55 PM75 °FSunny.14 mph50%29.77 "Hg10 mi
1:35 PM75 °FSunny.12 mph50%29.78 "Hg10 mi
1:15 PM75 °FSunny.10 mph50%29.79 "Hg10 mi
12:55 PM73 °FSunny.12 mph57%29.79 "Hg10 mi
12:35 PM73 °FSunny.10 mph57%29.79 "Hg10 mi
12:15 PM73 °FPassing clouds.10 mph57%29.80 "Hg10 mi
11:55 AM73 °FPassing clouds.10 mph57%29.80 "Hg10 mi
11:35 AM73 °FPartly sunny.9 mph57%29.80 "Hg10 mi
11:15 AM73 °FPartly sunny.12 mph57%29.80 "Hg10 mi
10:55 AM72 °FPartly sunny.8 mph65%29.80 "Hg10 mi
10:35 AM72 °FOvercast.13 mph65%29.80 "Hg10 mi
10:15 AM72 °FPartly sunny.8 mph65%29.80 "Hg10 mi
9:55 AM72 °FPassing clouds.8 mph69%29.80 "Hg10 mi
9:35 AM72 °FScattered clouds.8 mph69%29.80 "Hg10 mi
8:55 AM72 °FScattered clouds.3 mph61%29.81 "Hg10 mi
8:35 AM72 °FSunny.5 mph61%29.81 "Hg10 mi
8:15 AM70 °FPassing clouds.No wind64%29.81 "Hg10 mi
7:55 AM68 °FPartly sunny.No wind69%29.81 "Hg10 mi
7:35 AM66 °FScattered clouds.No wind73%29.80 "Hg10 mi
7:15 AM63 °FSunny.No wind77%29.80 "Hg10 mi
6:55 AM61 °FSunny.No wind83%29.80 "Hg10 mi
6:35 AM59 °FSunny.5 mph82%29.80 "Hg10 mi
6:15 AM57 °FSunny.No wind88%29.79 "Hg10 mi
5:55 AM55 °FPassing clouds.No wind88%29.79 "Hg10 mi
5:35 AM55 °FPartly sunny.No wind88%29.79 "Hg7 mi
5:15 AM55 °FPartly sunny.No wind88%29.79 "Hg8 mi
4:55 AM55 °FPassing clouds.No wind82%29.79 "Hg7 mi
4:35 AM55 °FPassing clouds.No wind94%29.79 "Hg10 mi
4:15 AM55 °FPassing clouds.No wind88%29.79 "Hg10 mi
3:55 AM55 °FClear.No wind88%29.80 "Hg10 mi
3:35 AM57 °FClear.No wind88%29.80 "Hg10 mi
3:15 AM57 °FClear.No wind88%29.80 "Hg10 mi
2:55 AM57 °FClear.No wind88%29.81 "Hg10 mi
2:35 AM57 °FClear.No wind88%29.81 "Hg10 mi
1:55 AM57 °FClear.No wind88%29.81 "Hg10 mi
1:35 AM57 °FClear.No wind88%29.81 "Hg10 mi
1:15 AM57 °FClear.No wind88%29.81 "Hg10 mi
12:55 AM57 °FClear.No wind82%29.81 "Hg10 mi
12:35 AM57 °FClear.No wind88%29.81 "Hg10 mi
12:15 AM59 °FClear.No wind82%29.82 "Hg10 mi
11:55 PM
Sun, Jun 28
61 °FClear.No wind77%29.82 "Hg10 mi
11:35 PM61 °FClear.No wind77%29.82 "Hg10 mi
Weather by CustomWeather, © 2015

See weather overviewHow to use our weather pages